Regional Weather Roundup
Issued by NWS Sterling, VA

Home | Current Version | Previous Version | Text Only | Print | Product List | Glossary Off
Versions: 1 2 3 4 5 6 7 8 9 10 11 12 13 14 15 16 17 18 19 20 21 22 23 24 25 26 27 28 29 30 31 32 33 34 35 36 37 38 39 40 41 42 43 44 45 46 47 48 49 50

000
ASUS41 KLWX 260810
RWRLWX

REGIONAL WEATHER ROUNDUP
NATIONAL WEATHER SERVICE BALTIMORE MD/WASHINGTON DC
300 AM EST MON JAN 26 2015

Note: "FAIR" indicates few or no clouds below 12,000 feet
with no significant weather and/or obstructions to visibility.
 TC=TEMPERATURE CELSIUS

 * =Non NWS site. Station does not report precipitation (e.g. rain,
    snow, etc.), thunder, or fog.

DCZ001-MDZ009-015-VAZ040>042-051-053>054-260900-
WASHINGTON METRO

CITY           SKY/WX    TMP DP  RH WIND       PRES   REMARKS
WASHINGTON NAT LGT RAIN  42  34  73 NE10      29.82F
DULLES         LGT RAIN  41  33  73 E6        29.80F
ANDREWS AFB    DRIZZLE   39  36  87 NE6       29.81S
FT BELVOIR     LGT RAIN  40  35  80 CALM      29.81F
QUANTICO       LGT RAIN  39  34  82 SE6       29.81F
COLLEGE PARK*  CLOUDY    39  36  87 NE3       29.83S
LEESBURG*      CLOUDY    37  37 100 NE6       29.81S
MANASSAS*      CLOUDY    41  36  81 CALM      29.79F
GAITHERSBURG*  CLOUDY    37  32  81 E8        29.84F

$$

MDZ006>007-011-014-260900-
BALTIMORE METRO

CITY           SKY/WX    TMP DP  RH WIND       PRES   REMARKS
BWI AIRPORT    LGT RAIN  38  34  85 NE14      29.84F
MD SCIENCE CTR   N/A     38  34  85 MISG      29.84F
MARTIN STATE   RAIN      36  34  93 NE9       29.88F WCI  29
ANNAPOLIS      LGT RAIN  40  33  76 E9        29.84F
FORT MEADE*    CLOUDY    37  34  87 E6        29.86S

$$

MDZ012-015-019>023-260900-
MARYLAND EASTERN SHORE

CITY           SKY/WX    TMP DP  RH WIND       PRES   REMARKS
OCEAN CITY     CLOUDY    38  36  92 E3        29.86F
SALISBURY      CLOUDY    40  35  83 E5        29.85F
BAY BRIDGE AP*   N/A     39  32  75 E9        29.84F
CAMBRIDGE*     CLOUDY    41  34  75 E6        29.83F
EASTON*        CLOUDY    42  36  78 E7        29.87F

$$

MDZ017>025-260900-
SOUTHERN MARYLAND

CITY           SKY/WX    TMP DP  RH WIND       PRES   REMARKS
PATUXENT RIVER CLOUDY    39  35  86 SE8       29.82F
ST INIGOES     CLOUDY    41  33  73 E6        29.81F
LEONARDTOWN*   CLOUDY    41  34  75 SE5       29.82F

$$

MDZ003>005-260900-
NORTH CENTRAL MARYLAND

CITY           SKY/WX    TMP DP  RH WIND       PRES   REMARKS
FREDERICK*     LGT RAIN  36  32  87 N9        29.86S WCI  29
HAGERSTOWN APT LGT SNOW  35  31  85 NE10      29.80F FOG     WCI  27
WESTMINSTER*   LGT RAIN  34  32  93 E13       29.81F WCI  25

$$

MDZ501>502-260900-
WESTERN MARYLAND

CITY           SKY/WX    TMP DP  RH WIND       PRES   REMARKS
OAKLAND*       FOG       30 N/A N/A SE8       29.64F VSB 1/2 WCI  23
CUMBERLAND*      N/A     36  34  93 MISG        N/A

$$

VAZ025>031-260900-
SHENANDOAH VALLEY

CITY           SKY/WX    TMP DP  RH WIND       PRES   REMARKS
WINCHESTER*    CLOUDY    36  32  87 NE5       29.77S FOG
FRONT ROYAL*   CLOUDY    36  34  93 N5        29.75F
LURAY*         RAIN      37  37 100 N9        29.73F
NEW MARKET*    CLOUDY    36  33  91 NE6       29.73S
STAUNTON*      LGT RAIN  37  33  85 CALM      29.72F
WAYNESBORO*    CLOUDY    38  34  84 E5        29.70F

$$

WVZ021-048>050-054>055-260900-
EASTERN WEST VIRGINIA PANHANDLE

CITY           SKY/WX    TMP DP  RH WIND       PRES   REMARKS
MARTINSBURG    CLOUDY    35  32  88 N7        29.79F FOG
PETERSBURG*    MIX PCPN  37  37 100 CALM      29.74F

$$

VAZ036>039-050-260900-
CENTRAL FOOTHILLS

CITY           SKY/WX    TMP DP  RH WIND       PRES   REMARKS
CHARLOTTESVILL LGT RAIN  37  34  89 CALM      29.74F
CULPEPER*      CLOUDY    37  36  93 CALM      29.77F
ORANGE*        LGT RAIN  36  36 100 CALM      29.77F
GORDONSVILLE*  CLOUDY    33  32  95 CALM      29.75S
WARRENTON*     CLOUDY    40  38  91 CALM      29.77F

$$

VAZ055>057-260900-
NORTH AND CENTRAL PIEDMONT

CITY           SKY/WX    TMP DP  RH WIND       PRES   REMARKS
FREDERICKSBRG* DRIZZLE   41  36  80 E6        29.78S
STAFFORD*      LGT RAIN  40  33  78 CALM      29.82F

$$

NCZ024-NYZ072-PAZ021-071-VAZ022-071-260900-
OTHER REGIONAL OBSERVATIONS

CITY           SKY/WX    TMP DP  RH WIND       PRES   REMARKS
NEW YORK CITY  CLOUDY    26   3  37 NE12      30.03F WCI  16
PHILADELPHIA   CLOUDY    30  23  75 NE10      29.96F WCI  21
PITTSBURGH     LGT SNOW  28  27  96 N7        29.71F FOG
ROANOKE        CLOUDY    42  32  67 SE3       29.69F
RICHMOND       LGT RAIN  41  37  86 SE9       29.77F
RALEIGH        MOCLDY    40  34  79 CALM      29.73F

$$

ANZ530>537-260900-
MARINE OBSERVATIONS

STATION/POSITION TIME  TEMP    WIND        PRES
                       AIR SEA DIR/SP/G
                 (UTC) (F)     (DEG/KT/KT) (MB)
THOMAS PT LIGHT  0800   40 38   80/  9/ 10 1011.4F
BALT KEY BRIDGE  0800   38      50/ 13/ 15 1010.7F
COVE POINT       0800   39     160/ 10/ 11 1009.7F
LEWISETTA        0800   41 39  150/  3/  4 1009.4S
SOLOMONS ISLAND  0800      39                N/A
PINEY POINT      0800          130/  8/  9   N/A

$$




USA.gov is the U.S. government's official web portal to all federal, state and local government web resources and services.